DW5212 Weather Reports


time (UTC)temp
F
wind
direction
speed
knots
gust
knots
rain 1hr
in
rain 24hr
in
rain mn
in
humidity
%
barometer
mb
20260504043507 59 195 0.0 0.0 0.00 0.00 0.00 83 1018.4
20260504041507 59 195 0.0 0.0 0.00 0.00 0.00 83 1018.5
20260504041008 59 195 0.0 0.0 0.00 0.00 0.00 83 1018.6
20260504040506 59 195 0.0 0.0 0.00 0.00 0.00 83 1018.5
20260504040010 60 195 0.0 0.0 0.00 0.00 0.00 83 1018.5
20260504035007 60 195 0.0 1.7 0.00 0.00 0.00 83 1018.6
20260504034508 60 194 0.0 1.7 0.00 0.00 0.00 82 1018.6
20260504034009 60 231 0.0 1.7 0.00 0.00 0.00 82 1018.6
20260504033507 60 231 0.0 1.7 0.00 0.00 0.00 82 1018.6
20260504033010 60 220 0.0 1.7 0.00 0.00 0.00 82 1018.6
20260504032507 60 201 0.0 0.9 0.00 0.00 0.00 81 1018.6
20260504032009 60 201 0.0 1.7 0.00 0.00 0.00 81 1018.5
20260504031507 60 55 0.0 0.0 0.00 0.00 0.00 81 1018.5
20260504031010 61 55 0.0 0.0 0.00 0.00 0.00 81 1018.5
20260504030010 61 55 0.0 0.0 0.00 0.00 0.00 80 1018.5
20260504025507 61 56 0.0 0.0 0.00 0.00 0.00 80 1018.3
20260504025009 61 56 0.0 0.0 0.00 0.00 0.00 80 1018.3
20260504024508 61 56 0.0 0.0 0.00 0.00 0.00 80 1018.3
20260504024008 61 44 0.0 0.0 0.00 0.00 0.00 79 1018.3
20260504023508 62 44 0.0 0.0 0.00 0.00 0.00 79 1018.2
20260504022009 62 43 0.0 0.0 0.00 0.00 0.00 78 1018.2
20260504021508 63 43 0.0 0.0 0.00 0.00 0.00 78 1018.1
20260504021008 63 43 0.0 0.0 0.00 0.00 0.00 77 1018.1
20260504020506 63 43 0.0 0.0 0.00 0.00 0.00 77 1018.0
20260504020010 64 43 0.0 0.0 0.00 0.00 0.00 76 1018.0
20260504015507 64 43 0.0 0.0 0.00 0.00 0.00 75 1017.9
20260504015008 64 43 0.0 0.0 0.00 0.00 0.00 75 1017.7
20260504014007 65 43 0.0 0.0 0.00 0.00 0.00 74 1017.7
20260504013506 65 43 0.0 0.0 0.00 0.00 0.00 74 1017.6
20260504013008 65 43 0.0 0.0 0.00 0.00 0.00 74 1017.6
20260504012507 66 43 0.0 0.0 0.00 0.00 0.00 73 1017.6
20260504012008 66 43 0.0 0.9 0.00 0.00 0.00 72 1017.5
20260504011507 67 43 0.0 0.9 0.00 0.00 0.00 72 1017.4
20260504011008 67 43 0.0 0.0 0.00 0.00 0.00 72 1017.4
20260504010507 67 43 0.0 0.0 0.00 0.00 0.00 71 1017.1
20260504010009 68 43 0.0 0.0 0.00 0.00 0.00 70 1017.0
20260504005506 68 43 0.0 0.0 0.00 0.00 0.00 69 1017.1
20260504005007 69 43 0.0 0.0 0.00 0.00 0.00 69 1016.9
20260504004507 69 43 0.0 0.0 0.00 0.00 0.00 68 1017.0
20260504004008 69 43 0.0 0.0 0.00 0.00 0.00 68 1017.0
20260504003507 70 43 0.0 0.9 0.00 0.00 0.00 68 1017.1
20260504003009 70 43 0.0 0.9 0.00 0.00 0.00 67 1017.0
20260504002506 71 43 0.0 0.0 0.00 0.00 0.00 67 1017.1
20260504002008 71 43 0.0 0.0 0.00 0.00 0.00 66 1017.1
20260504001507 71 43 0.0 0.0 0.00 0.00 0.00 66 1017.1
20260504001010 71 43 0.0 0.0 0.00 0.00 0.00 64 1017.3
20260504000011 72 37 0.0 0.9 0.00 0.00 0.00 63 1017.1
20260503235007 73 40 0.0 0.0 0.00 0.00 0.00 61 1017.4
20260503234008 73 40 0.0 0.9 0.00 0.00 0.00 56 1017.4
20260503233008 74 40 0.0 0.9 0.00 0.00 0.00 53 1017.6
20260503232507 74 40 0.0 0.9 0.00 0.00 0.00 50 1017.7
20260503232008 74 40 0.0 0.9 0.00 0.00 0.00 50 1017.6
20260503231508 74 40 0.0 0.9 0.00 0.00 0.00 50 1017.7
20260503231008 74 40 0.0 0.9 0.00 0.00 0.00 49 1017.8
20260503230506 74 40 0.0 0.9 0.00 0.00 0.00 50 1017.8
20260503230012 74 40 0.0 0.9 0.00 0.00 0.00 49 1017.9
20260503225507 74 40 0.0 0.9 0.00 0.00 0.00 50 1017.9
20260503225008 74 40 0.0 0.9 0.00 0.00 0.00 50 1017.9
20260503224509 74 40 0.0 1.7 0.00 0.00 0.00 49 1017.8
20260503224009 74 40 0.0 1.7 0.00 0.00 0.00 49 1017.9
20260503223507 75 192 0.0 0.0 0.00 0.00 0.00 50 1018.0
20260503223009 75 192 0.0 0.0 0.00 0.00 0.00 52 1018.1
20260503222506 75 205 0.0 0.0 0.00 0.00 0.00 50 1018.1
20260503222009 75 205 0.0 0.0 0.00 0.00 0.00 51 1018.2
20260503221507 76 205 0.0 0.0 0.00 0.00 0.00 48 1018.2
20260503221010 76 205 0.0 0.0 0.00 0.00 0.00 47 1018.2
20260503220507 76 205 0.0 0.0 0.00 0.00 0.00 45 1018.3
20260503220010 77 205 0.0 0.0 0.00 0.00 0.00 47 1018.4
20260503214509 78 165 0.0 3.5 0.00 0.00 0.00 44 1018.4
20260503214009 78 192 0.9 2.6 0.00 0.00 0.00 44 1018.5
20260503213506 79 237 0.9 4.3 0.00 0.00 0.00 44 1018.7
20260503213009 79 26 1.7 4.3 0.00 0.00 0.00 45 1018.7
20260503212508 79 263 0.9 3.5 0.00 0.00 0.00 43 1018.6
20260503212009 80 204 0.9 3.5 0.00 0.00 0.00 43 1018.7
20260503211507 80 203 1.7 7.8 0.00 0.00 0.00 41 1018.9
20260503211008 80 213 2.6 7.8 0.00 0.00 0.00 42 1018.9
20260503210506 80 223 1.7 6.1 0.00 0.00 0.00 42 1018.9
20260503210008 80 208 0.9 2.6 0.00 0.00 0.00 41 1019.0
20260503205505 80 284 0.9 4.3 0.00 0.00 0.00 41 1019.1
20260503204507 80 200 1.7 4.3 0.00 0.00 0.00 43 1019.1
20260503204007 80 113 0.9 4.3 0.00 0.00 0.00 42 1019.2
20260503203007 80 158 0.9 3.5 0.00 0.00 0.00 44 1019.6
20260503202506 80 186 0.9 3.5 0.00 0.00 0.00 45 1019.6
20260503201506 80 13 0.9 2.6 0.00 0.00 0.00 42 1019.8
20260503201009 80 111 0.9 2.6 0.00 0.00 0.00 41 1019.8
20260503200507 80 213 0.0 2.6 0.00 0.00 0.00 43 1019.9
20260503200010 80 181 0.9 2.6 0.00 0.00 0.00 43 1019.9
20260503195506 80 154 1.7 2.6 0.00 0.00 0.00 42 1020.1
20260503195009 80 10 1.7 3.5 0.00 0.00 0.00 44 1020.1
20260503194006 80 215 0.9 4.3 0.00 0.00 0.00 45 1020.3
20260503193506 80 101 0.9 1.7 0.00 0.00 0.00 41 1020.3
20260503193010 81 150 0.9 3.5 0.00 0.00 0.00 43 1020.3
20260503192508 81 205 1.7 5.2 0.00 0.00 0.00 44 1020.7
20260503192008 80 205 1.7 5.2 0.00 0.00 0.00 43 1020.8
20260503191507 80 255 0.9 5.2 0.00 0.00 0.00 43 1020.8
20260503190507 80 218 0.9 3.5 0.00 0.00 0.00 45 1020.9
20260503190010 80 40 0.9 3.5 0.00 0.00 0.00 43 1021.0
20260503185506 80 211 0.9 3.5 0.00 0.00 0.00 42 1021.1
20260503185006 80 246 1.7 4.3 0.00 0.00 0.00 45 1021.1
20260503184507 80 221 1.7 6.1 0.00 0.00 0.00 45 1021.1
20260503184008 80 217 1.7 6.1 0.00 0.00 0.00 46 1021.1
20260503183505 80 337 1.7 4.3 0.00 0.00 0.00 44 1021.1
20260503182507 79 267 1.7 3.5 0.00 0.00 0.00 46 1021.3
20260503182008 79 254 1.7 5.2 0.00 0.00 0.00 44 1021.5
20260503181512 78 188 1.7 7.8 0.00 0.00 0.00 44 1021.5
20260503181007 79 220 2.6 7.8 0.00 0.00 0.00 43 1021.6
20260503180009 79 236 0.9 4.3 0.00 0.00 0.00 44 1021.7
20260503175506 78 346 1.7 3.5 0.00 0.00 0.00 43 1021.8
20260503174506 78 184 2.6 5.2 0.00 0.00 0.00 43 1021.9
20260503173508 78 231 0.9 5.2 0.00 0.00 0.00 48 1022.0
20260503173008 78 195 0.9 3.5 0.00 0.00 0.00 49 1022.1
20260503172507 78 254 1.7 4.3 0.00 0.00 0.00 46 1022.1
20260503172007 78 214 1.7 6.1 0.00 0.00 0.00 47 1022.2
20260503171508 77 182 1.7 3.5 0.00 0.00 0.00 48 1022.3
20260503171008 77 196 1.7 4.3 0.00 0.00 0.00 48 1022.5
20260503151008 68 244 0.0 2.6 0.00 0.00 0.00 68 1022.8
20260503150505 68 188 0.0 0.0 0.00 0.00 0.00 72 1022.8
20260503131006 49 5 0.0 0.0 0.00 0.00 0.00 94 1022.7
20260503130505 49 5 0.0 0.0 0.00 0.00 0.00 93 1022.6
20260503110506 46 5 0.0 0.0 0.00 0.00 0.00 91 1021.2
20260503090506 48 5 0.0 0.0 0.00 0.00 0.00 90 1020.9
20260503081005 49 5 0.0 0.0 0.00 0.00 0.00 90 1020.5
20260503080505 49 5 0.0 0.0 0.00 0.00 0.00 90 1020.4
20260503072506 49 5 0.0 0.0 0.00 0.00 0.00 89 1020.3
20260503072005 49 5 0.0 0.0 0.00 0.00 0.00 89 1020.2
20260503071507 49 5 0.0 0.0 0.00 0.00 0.00 89 1020.1
20260503070505 50 5 0.0 0.0 0.00 0.00 0.00 89 1020.1
20260503055008 51 5 0.0 0.0 0.00 0.00 0.00 88 1020.5
20260503054009 51 5 0.0 0.0 0.00 0.00 0.00 89 1020.6
20260503053507 51 5 0.0 0.0 0.00 0.00 0.00 89 1020.3
20260503053009 51 5 0.0 0.0 0.00 0.00 0.00 88 1020.4
20260503052508 51 5 0.0 0.0 0.00 0.00 0.00 88 1020.4
20260503052010 51 5 0.0 0.0 0.00 0.00 0.00 88 1020.4
20260503051510 52 5 0.0 0.0 0.00 0.00 0.00 88 1020.4
20260503051010 52 5 0.0 0.0 0.00 0.00 0.00 88 1020.5
20260503050507 52 5 0.0 0.0 0.00 0.00 0.00 88 1020.4
20260503050020 52 5 0.0 0.0 0.00 0.00 0.00 88 1020.4
20260503045506 52 5 0.0 0.0 0.00 0.02 0.00 88 1020.5
20260503045007 52 5 0.0 0.0 0.00 0.02 0.00 88 1020.4
20260503044507 52 5 0.0 0.0 0.00 0.02 0.00 88 1020.5
20260503044007 52 5 0.0 0.0 0.00 0.02 0.00 88 1020.4